This is the latest recevied weather packets stored in our database for station/object KC0RPY. If no packets are shown the sender has not sent any weather packets the latest 10 day(s).
| Time | Temp. | Humidity | Pressure | Rain* | Wind** | Luminosity | Snow |
|---|---|---|---|---|---|---|---|
| 1777923306 | 26.67° C | 47% | 1003.4 hPa | 0 mm | - | 735 W/m² | - |
| 1777923005 | 26.67° C | 48% | 1003.4 hPa | 0 mm | - | 726 W/m² | - |
| 1777922703 | 26.67° C | 49% | 1003.4 hPa | 0 mm | - | 726 W/m² | - |
| 1777922401 | 26.67° C | 48% | 1003.4 hPa | 0 mm | - | 749 W/m² | - |
| 1777922098 | 26.67° C | 48% | 1003.7 hPa | 0 mm | - | 759 W/m² | - |
| 1777921794 | 26.67° C | 48% | 1003.4 hPa | 0 mm | - | 770 W/m² | - |
| 1777921489 | 26.67° C | 49% | 1003.4 hPa | 0 mm | - | 766 W/m² | - |
| 1777921186 | 26.67° C | 49% | 1003.4 hPa | 0 mm | - | 788 W/m² | - |
| 1777920884 | 26.67° C | 49% | 1003.7 hPa | 0 mm | - | 804 W/m² | - |
| 1777920579 | 26.67° C | 49% | 1003.7 hPa | 0 mm | - | 791 W/m² | - |
| 1777920276 | 26.67° C | 47% | 1003.7 hPa | 0 mm | - | 787 W/m² | - |
| 1777919971 | 25.56° C | 48% | 1003.7 hPa | 0 mm | - | 773 W/m² | - |
| 1777919669 | 26.11° C | 47% | 1003.7 hPa | 0 mm | - | 755 W/m² | - |
| 1777919367 | 26.11° C | 47% | 1004.1 hPa | 0 mm | - | 597 W/m² | - |
| 1777919063 | 25.56° C | 46% | 1003.7 hPa | 0 mm | - | 757 W/m² | - |
| 1777918761 | 26.11° C | 49% | 1004.1 hPa | 0 mm | - | 747 W/m² | - |
| 1777918458 | 25.56° C | 50% | 1004.1 hPa | 0 mm | - | 778 W/m² | - |
| 1777918157 | 25.56° C | 48% | 1004.1 hPa | 0 mm | - | 783 W/m² | - |
| 1777917855 | 25.56° C | 49% | 1004.4 hPa | 0 mm | - | 734 W/m² | - |
| 1777917552 | 25° C | 50% | 1004.1 hPa | 0 mm | - | 749 W/m² | - |
| 1777917249 | 25° C | 49% | 1004.1 hPa | 0 mm | - | 764 W/m² | - |
| 1777916947 | 25° C | 48% | 1004.4 hPa | 0 mm | - | 756 W/m² | - |
| 1777916645 | 24.44° C | 48% | 1004.1 hPa | 0 mm | - | 584 W/m² | - |
| 1777916342 | 24.44° C | 49% | 1004.4 hPa | 0 mm | - | 855 W/m² | - |
| 1777916038 | 24.44° C | 48% | 1004.1 hPa | 0 mm | - | 784 W/m² | - |
* Rain latest hour (hover to see other rain measurements)
** Current wind speed in m/s (hover to see current wind gust speed)